QPF
0.00 0.00 0.00 0.00 0.00 0.01 0.02 0.01 0.01 0.03 0.04 0.03 0.01 0.01 0.02 0.02 0.02 0.02 0.01 0.02 0.03 0.04 0.05 0.07 0.08 0.07 0.07 0.07 0.08 0.09 0.11 0.14 0.14 0.13 0.10 0.07 0.05 0.04 0.02 0.02 0.01 0.01 0.01
0.00 0.00 0.00 0.00 0.00 0.00 0.01 0.01 0.01 0.01 0.02 0.03 0.02 0.02 0.02 0.02 0.02 0.02 0.02 0.02 0.02 0.02 0.03 0.04 0.05 0.07 0.07 0.08 0.10 0.12 0.12 0.14 0.16 0.16 0.14 0.11 0.08 0.05 0.03 0.02 0.02 0.01 0.01
0.00 0.00 0.00 0.00 0.00 0.00 0.00 0.01 0.01 0.01 0.01 0.01 0.01 0.01 0.02 0.01 0.01 0.02 0.01 0.01 0.01 0.01 0.03 0.03 0.03 0.04 0.05 0.05 0.07 0.10 0.13 0.15 0.15 0.15 0.17 0.17 0.13 0.09 0.06 0.03 0.02 0.01 0.01
0.00 0.00 0.00 0.00 0.00 0.00 0.00 0.00 0.01 0.01 0.01 0.01 0.01 0.01 0.01 0.01 0.01 0.02 0.01 0.01 0.01 0.01 0.02 0.03 0.03 0.03 0.03 0.04 0.05 0.07 0.10 0.14 0.16 0.16 0.15 0.13 0.11 0.10 0.09 0.06 0.04 0.03 0.02
0.00 0.00 0.00 0.00 0.00 0.00 0.00 0.00 0.00 0.01 0.01 0.02 0.02 0.01 0.01 0.01 0.01 0.02 0.03 0.01 0.01 0.01 0.01 0.02 0.01 0.02 0.02 0.03 0.04 0.06 0.08 0.11 0.13 0.14 0.15 0.15 0.13 0.10 0.08 0.08 0.07 0.06 0.04
0.00 0.00 0.00 0.00 0.00 0.00 0.00 0.00 0.00 0.01 0.01 0.02 0.03 0.03 0.02 0.01 0.01 0.02 0.03 0.04 0.04 0.02 0.01 0.01 0.01 0.02 0.02 0.03 0.03 0.03 0.05 0.07 0.08 0.09 0.10 0.09 0.09 0.08 0.07 0.07 0.07 0.07 0.07
0.00 0.00 0.00 0.00 0.00 0.00 0.00 0.00 0.00 0.01 0.01 0.01 0.01 0.02 0.01 0.01 0.01 0.01 0.02 0.04 0.05 0.05 0.04 0.02 0.01 0.02 0.03 0.04 0.05 0.05 0.05 0.05 0.06 0.07 0.07 0.06 0.06 0.06 0.06 0.06 0.06 0.06 0.06
0.00 0.00 0.00 0.00 0.00 0.00 0.00 0.00 0.00 0.00 0.01 0.01 0.01 0.02 0.02 0.01 0.01 0.02 0.02 0.03 0.05 0.07 0.08 0.04 0.02 0.02 0.02 0.02 0.03 0.03 0.03 0.03 0.03 0.05 0.06 0.06 0.06 0.06 0.06 0.06 0.07 0.08 0.07
0.00 0.00 0.00 0.00 0.00 0.00 0.00 0.00 0.00 0.01 0.01 0.01 0.01 0.02 0.03 0.03 0.03 0.03 0.02 0.02 0.05 0.07 0.07 0.05 0.04 0.02 0.02 0.02 0.02 0.03 0.03 0.02 0.03 0.03 0.04 0.05 0.06 0.06 0.06 0.07 0.08 0.10 0.09
0.00 0.00 0.00 0.00 0.00 0.00 0.00 0.00 0.01 0.01 0.01 0.00 0.00 0.01 0.02 0.03 0.03 0.03 0.03 0.02 0.04 0.06 0.06 0.04 0.04 0.03 0.05 0.04 0.03 0.03 0.03 0.02 0.03 0.04 0.05 0.05 0.04 0.05 0.06 0.06 0.07 0.08 0.09
0.00 0.00 0.00 0.00 0.00 0.00 0.00 0.00 0.00 0.00 0.01 0.00 0.00 0.01 0.01 0.02 0.03 0.03 0.03 0.03 0.04 0.05 0.05 0.05 0.04 0.04 0.05 0.05 0.05 0.05 0.04 0.04 0.04 0.05 0.06 0.06 0.04 0.04 0.04 0.05 0.07 0.08 0.08
0.00 0.00 0.00 0.00 0.00 0.00 0.00 0.00 0.00 0.00 0.00 0.00 0.00 0.01 0.01 0.02 0.03 0.03 0.03 0.04 0.05 0.05 0.05 0.05 0.06 0.06 0.06 0.06 0.07 0.06 0.06 0.06 0.07 0.07 0.09 0.09 0.07 0.05 0.04 0.04 0.05 0.06 0.06
0.00 0.00 0.00 0.00 0.00 0.00 0.00 0.00 0.00 0.00 0.00 0.00 0.00 0.01 0.01 0.02 0.03 0.03 0.03 0.03 0.04 0.05 0.06 0.06 0.06 0.06 0.06 0.06 0.07 0.05 0.05 0.07 0.08 0.08 0.09 0.09 0.08 0.06 0.05 0.04 0.05 0.05 0.06
0.00 0.00 0.00 0.00 0.00 0.00 0.00 0.00 0.00 0.00 0.01 0.01 0.00 0.01 0.01 0.01 0.02 0.02 0.02 0.02 0.03 0.03 0.05 0.08 0.09 0.09 0.08 0.07 0.07 0.06 0.05 0.05 0.06 0.06 0.05 0.06 0.06 0.05 0.04 0.05 0.05 0.04 0.04
0.00 0.00 0.00 0.00 0.00 0.00 0.00 0.00 0.00 0.00 0.01 0.01 0.00 0.01 0.01 0.02 0.02 0.02 0.01 0.02 0.02 0.03 0.04 0.05 0.06 0.08 0.09 0.09 0.09 0.07 0.05 0.05 0.05 0.04 0.05 0.05 0.05 0.05 0.04 0.05 0.04 0.04 0.03
0.00 0.00 0.00 0.00 0.00 0.00 0.00 0.00 0.00 0.00 0.01 0.01 0.01 0.01 0.02 0.02 0.03 0.03 0.02 0.03 0.03 0.04 0.05 0.04 0.05 0.07 0.07 0.08 0.08 0.07 0.06 0.05 0.05 0.04 0.04 0.03 0.03 0.05 0.05 0.05 0.04 0.03 0.02
0.00 0.00 0.00 0.00 0.00 0.00 0.00 0.00 0.00 0.00 0.00 0.01 0.01 0.02 0.03 0.04 0.04 0.04 0.03 0.04 0.04 0.06 0.05 0.05 0.06 0.08 0.09 0.07 0.06 0.06 0.06 0.06 0.05 0.04 0.03 0.03 0.03 0.03 0.04 0.05 0.04 0.03 0.03
0.00 0.00 0.00 0.00 0.00 0.00 0.00 0.00 0.00 0.00 0.00 0.00 0.01 0.01 0.03 0.04 0.05 0.05 0.04 0.04 0.05 0.05 0.04 0.04 0.09 0.10 0.07 0.06 0.05 0.05 0.05 0.05 0.05 0.04 0.03 0.03 0.03 0.03 0.03 0.04 0.03 0.02 0.02
0.00 0.00 0.00 0.00 0.00 0.00 0.00 0.00 0.00 0.00 0.00 0.00 0.01 0.01 0.01 0.02 0.03 0.04 0.03 0.04 0.04 0.04 0.04 0.04 0.06 0.05 0.06 0.05 0.04 0.04 0.03 0.04 0.04 0.04 0.04 0.03 0.03 0.03 0.04 0.04 0.04 0.03 0.02
0.00 0.00 0.00 0.00 0.00 0.00 0.00 0.00 0.00 0.00 0.00 0.00 0.01 0.01 0.02 0.02 0.02 0.02 0.02 0.02 0.02 0.03 0.04 0.04 0.03 0.03 0.04 0.06 0.04 0.03 0.03 0.03 0.03 0.03 0.03 0.04 0.04 0.03 0.03 0.03 0.03 0.03 0.02
0.00 0.00 0.00 0.00 0.00 0.00 0.00 0.00 0.00 0.00 0.00 0.00 0.01 0.01 0.02 0.02 0.02 0.02 0.01 0.02 0.01 0.01 0.02 0.02 0.03 0.03 0.05 0.06 0.05 0.03 0.03 0.03 0.03 0.04 0.04 0.04 0.05 0.04 0.04 0.03 0.02 0.02 0.02
0.00 0.00 0.00 0.00 0.00 0.00 0.00 0.00 0.00 0.00 0.00 0.01 0.01 0.01 0.02 0.01 0.02 0.01 0.01 0.02 0.01 0.01 0.01 0.02 0.02 0.03 0.04 0.05 0.05 0.05 0.04 0.03 0.04 0.04 0.04 0.05 0.05 0.05 0.04 0.04 0.04 0.03 0.03
0.00 0.00 0.00 0.00 0.00 0.00 0.00 0.00 0.00 0.00 0.01 0.01 0.01 0.01 0.02 0.02 0.01 0.01 0.01 0.01 0.01 0.01 0.01 0.01 0.01 0.02 0.03 0.03 0.03 0.03 0.04 0.03 0.03 0.04 0.05 0.06 0.07 0.06 0.05 0.04 0.04 0.03 0.03
0.00 0.00 0.00 0.00 0.00 0.00 0.00 0.00 0.00 0.01 0.01 0.01 0.01 0.01 0.02 0.02 0.01 0.01 0.01 0.01 0.01 0.01 0.01 0.01 0.01 0.01 0.01 0.02 0.02 0.02 0.02 0.02 0.03 0.04 0.04 0.05 0.06 0.06 0.06 0.05 0.04 0.03 0.03
0.00 0.00 0.00 0.00 0.00 0.00 0.00 0.00 0.00 0.00 0.00 0.00 0.01 0.01 0.01 0.01 0.01 0.01 0.00 0.00 0.01 0.01 0.01 0.01 0.01 0.01 0.01 0.01 0.01 0.02 0.02 0.02 0.03 0.03 0.03 0.03 0.03 0.03 0.04 0.05 0.05 0.04 0.03
0.00 0.00 0.00 0.00 0.00 0.00 0.00 0.00 0.00 0.00 0.00 0.00 0.01 0.01 0.01 0.01 0.01 0.00 0.00 0.00 0.00 0.00 0.01 0.01 0.01 0.01 0.01 0.01 0.01 0.01 0.01 0.02 0.03 0.03 0.03 0.03 0.02 0.02 0.03 0.03 0.04 0.05 0.04
MSLP
1019.18 1019.64 1020.06 1020.40 1020.65 1020.79 1020.84 1020.81 1020.70 1020.53 1020.32 1020.08 1019.81 1019.53 1019.25 1018.96 1018.68 1018.41 1018.15 1017.90 1017.65 1017.41 1017.16 1016.90 1016.64 1016.37 1016.10 1015.84 1015.58 1015.33 1015.08 1014.85 1014.61 1014.38 1014.14 1013.91 1013.69 1013.49 1013.33 1013.22 1013.17 1013.17 1013.23
1018.84 1019.32 1019.76 1020.12 1020.41 1020.60 1020.71 1020.75 1020.71 1020.62 1020.46 1020.26 1020.01 1019.71 1019.38 1019.03 1018.67 1018.32 1017.99 1017.69 1017.41 1017.16 1016.93 1016.71 1016.48 1016.24 1016.00 1015.73 1015.46 1015.19 1014.91 1014.63 1014.35 1014.08 1013.80 1013.53 1013.27 1013.04 1012.83 1012.67 1012.56 1012.51 1012.53
1018.40 1018.90 1019.36 1019.76 1020.09 1020.34 1020.51 1020.62 1020.66 1020.63 1020.54 1020.38 1020.15 1019.85 1019.49 1019.09 1018.67 1018.25 1017.86 1017.52 1017.21 1016.96 1016.73 1016.53 1016.32 1016.09 1015.85 1015.58 1015.29 1014.98 1014.68 1014.37 1014.06 1013.77 1013.48 1013.20 1012.93 1012.68 1012.45 1012.26 1012.10 1012.00 1011.96
1017.90 1018.44 1018.94 1019.38 1019.75 1020.04 1020.27 1020.43 1020.53 1020.56 1020.53 1020.41 1020.21 1019.91 1019.54 1019.12 1018.66 1018.20 1017.78 1017.40 1017.07 1016.80 1016.57 1016.36 1016.15 1015.92 1015.66 1015.36 1015.04 1014.70 1014.37 1014.04 1013.73 1013.44 1013.17 1012.91 1012.66 1012.42 1012.18 1011.97 1011.77 1011.62 1011.51
1017.43 1018.02 1018.56 1019.04 1019.43 1019.76 1020.01 1020.21 1020.35 1020.42 1020.42 1020.34 1020.17 1019.89 1019.53 1019.11 1018.64 1018.17 1017.73 1017.33 1016.99 1016.70 1016.45 1016.22 1015.97 1015.70 1015.40 1015.05 1014.69 1014.32 1013.95 1013.62 1013.33 1013.06 1012.83 1012.62 1012.41 1012.20 1011.97 1011.74 1011.51 1011.30 1011.12
1017.05 1017.68 1018.26 1018.76 1019.18 1019.51 1019.78 1019.98 1020.13 1020.22 1020.25 1020.19 1020.04 1019.80 1019.46 1019.06 1018.61 1018.15 1017.71 1017.31 1016.96 1016.64 1016.36 1016.07 1015.77 1015.43 1015.05 1014.64 1014.21 1013.80 1013.41 1013.08 1012.81 1012.59 1012.42 1012.27 1012.12 1011.95 1011.74 1011.50 1011.24 1010.97 1010.72
1016.76 1017.44 1018.04 1018.57 1018.99 1019.32 1019.58 1019.77 1019.91 1020.00 1020.02 1019.98 1019.85 1019.63 1019.33 1018.97 1018.56 1018.13 1017.71 1017.32 1016.95 1016.60 1016.26 1015.90 1015.51 1015.08 1014.60 1014.10 1013.60 1013.14 1012.73 1012.40 1012.16 1012.00 1011.89 1011.81 1011.72 1011.60 1011.42 1011.17 1010.88 1010.57 1010.25
1016.54 1017.24 1017.87 1018.40 1018.83 1019.16 1019.40 1019.58 1019.70 1019.77 1019.78 1019.73 1019.62 1019.43 1019.17 1018.85 1018.48 1018.10 1017.71 1017.32 1016.94 1016.56 1016.15 1015.70 1015.21 1014.66 1014.08 1013.48 1012.90 1012.37 1011.94 1011.62 1011.41 1011.30 1011.26 1011.24 1011.21 1011.13 1010.97 1010.73 1010.42 1010.06 1009.70
1016.33 1017.03 1017.67 1018.21 1018.64 1018.97 1019.21 1019.37 1019.48 1019.53 1019.53 1019.48 1019.37 1019.21 1018.98 1018.71 1018.39 1018.05 1017.70 1017.32 1016.93 1016.50 1016.03 1015.49 1014.88 1014.22 1013.52 1012.82 1012.16 1011.58 1011.12 1010.80 1010.62 1010.55 1010.56 1010.60 1010.62 1010.58 1010.45 1010.21 1009.88 1009.50 1009.10
1016.02 1016.71 1017.35 1017.90 1018.35 1018.69 1018.95 1019.12 1019.22 1019.27 1019.27 1019.22 1019.12 1018.97 1018.79 1018.55 1018.29 1018.00 1017.67 1017.32 1016.91 1016.45 1015.91 1015.29 1014.58 1013.82 1013.02 1012.23 1011.50 1010.87 1010.39 1010.07 1009.91 1009.87 1009.92 1010.00 1010.06 1010.04 1009.92 1009.69 1009.36 1008.96 1008.54
1015.53 1016.19 1016.82 1017.39 1017.88 1018.27 1018.56 1018.77 1018.91 1018.98 1018.99 1018.95 1018.87 1018.74 1018.59 1018.40 1018.18 1017.93 1017.64 1017.31 1016.91 1016.42 1015.84 1015.16 1014.38 1013.54 1012.67 1011.82 1011.04 1010.38 1009.89 1009.57 1009.42 1009.41 1009.48 1009.58 1009.65 1009.65 1009.53 1009.31 1008.98 1008.58 1008.16
1014.82 1015.44 1016.07 1016.67 1017.21 1017.66 1018.03 1018.31 1018.50 1018.62 1018.67 1018.66 1018.60 1018.51 1018.38 1018.24 1018.06 1017.86 1017.61 1017.31 1016.93 1016.45 1015.85 1015.14 1014.33 1013.45 1012.55 1011.67 1010.88 1010.22 1009.72 1009.41 1009.27 1009.26 1009.34 1009.44 1009.51 1009.51 1009.39 1009.17 1008.85 1008.46 1008.05
1013.91 1014.49 1015.12 1015.75 1016.36 1016.90 1017.37 1017.74 1018.02 1018.21 1018.31 1018.35 1018.33 1018.27 1018.18 1018.08 1017.95 1017.80 1017.60 1017.34 1016.99 1016.54 1015.96 1015.26 1014.46 1013.59 1012.69 1011.83 1011.06 1010.42 1009.95 1009.65 1009.52 1009.51 1009.58 1009.66 1009.72 1009.70 1009.57 1009.35 1009.03 1008.66 1008.27
1012.88 1013.42 1014.05 1014.73 1015.41 1016.04 1016.62 1017.10 1017.48 1017.75 1017.92 1018.02 1018.05 1018.03 1017.99 1017.93 1017.85 1017.75 1017.60 1017.40 1017.10 1016.70 1016.17 1015.52 1014.76 1013.94 1013.10 1012.29 1011.57 1010.97 1010.54 1010.27 1010.14 1010.13 1010.17 1010.23 1010.25 1010.21 1010.06 1009.83 1009.52 1009.17 1008.81
1011.86 1012.38 1013.01 1013.72 1014.47 1015.19 1015.87 1016.45 1016.92 1017.29 1017.54 1017.69 1017.78 1017.81 1017.81 1017.79 1017.76 1017.71 1017.63 1017.48 1017.25 1016.91 1016.45 1015.87 1015.19 1014.45 1013.69 1012.96 1012.32 1011.79 1011.40 1011.16 1011.04 1011.02 1011.04 1011.06 1011.04 1010.96 1010.78 1010.54 1010.24 1009.91 1009.57
1011.00 1011.50 1012.13 1012.87 1013.66 1014.45 1015.20 1015.87 1016.43 1016.87 1017.18 1017.40 1017.53 1017.61 1017.65 1017.68 1017.69 1017.69 1017.66 1017.57 1017.40 1017.13 1016.75 1016.26 1015.67 1015.03 1014.37 1013.74 1013.18 1012.73 1012.40 1012.19 1012.09 1012.05 1012.04 1012.01 1011.95 1011.82 1011.62 1011.36 1011.06 1010.75 1010.45
1010.42 1010.90 1011.53 1012.27 1013.08 1013.91 1014.70 1015.42 1016.04 1016.53 1016.89 1017.15 1017.33 1017.44 1017.52 1017.58 1017.63 1017.67 1017.67 1017.64 1017.52 1017.32 1017.02 1016.61 1016.12 1015.58 1015.03 1014.50 1014.03 1013.66 1013.38 1013.21 1013.11 1013.05 1013.01 1012.95 1012.83 1012.66 1012.43 1012.15 1011.86 1011.56 1011.29
1010.20 1010.65 1011.25 1011.98 1012.77 1013.60 1014.40 1015.14 1015.77 1016.29 1016.68 1016.97 1017.16 1017.30 1017.41 1017.49 1017.56 1017.62 1017.66 1017.66 1017.59 1017.44 1017.20 1016.87 1016.47 1016.02 1015.57 1015.13 1014.75 1014.45 1014.22 1014.08 1013.98 1013.92 1013.84 1013.74 1013.59 1013.39 1013.13 1012.84 1012.54 1012.27 1012.02
1010.29 1010.72 1011.28 1011.96 1012.72 1013.51 1014.28 1015.00 1015.62 1016.13 1016.53 1016.82 1017.03 1017.18 1017.29 1017.39 1017.47 1017.55 1017.60 1017.61 1017.57 1017.46 1017.27 1017.00 1016.68 1016.31 1015.94 1015.59 1015.28 1015.04 1014.86 1014.74 1014.65 1014.57 1014.48 1014.35 1014.17 1013.94 1013.67 1013.38 1013.09 1012.82 1012.60
1010.62 1011.01 1011.52 1012.13 1012.83 1013.55 1014.27 1014.94 1015.53 1016.02 1016.41 1016.69 1016.90 1017.05 1017.16 1017.26 1017.34 1017.42 1017.47 1017.49 1017.47 1017.38 1017.23 1017.01 1016.74 1016.45 1016.15 1015.87 1015.63 1015.44 1015.30 1015.20 1015.12 1015.04 1014.94 1014.79 1014.60 1014.36 1014.08 1013.79 1013.51 1013.25 1013.05
1011.04 1011.38 1011.82 1012.36 1012.98 1013.63 1014.28 1014.90 1015.44 1015.89 1016.26 1016.53 1016.73 1016.88 1016.99 1017.08 1017.16 1017.22 1017.27 1017.29 1017.28 1017.21 1017.09 1016.92 1016.71 1016.48 1016.24 1016.03 1015.84 1015.70 1015.60 1015.52 1015.45 1015.37 1015.26 1015.12 1014.92 1014.69 1014.42 1014.14 1013.87 1013.63 1013.42
1011.41 1011.68 1012.06 1012.53 1013.07 1013.65 1014.23 1014.78 1015.28 1015.70 1016.04 1016.30 1016.49 1016.63 1016.74 1016.82 1016.89 1016.96 1017.00 1017.03 1017.02 1016.97 1016.89 1016.76 1016.60 1016.44 1016.27 1016.11 1015.98 1015.88 1015.80 1015.74 1015.69 1015.62 1015.52 1015.38 1015.20 1014.98 1014.74 1014.48 1014.22 1013.99 1013.78
1011.60 1011.82 1012.14 1012.54 1013.01 1013.52 1014.04 1014.55 1015.01 1015.40 1015.72 1015.97 1016.16 1016.29 1016.40 1016.48 1016.55 1016.61 1016.66 1016.70 1016.71 1016.69 1016.64 1016.57 1016.47 1016.36 1016.26 1016.16 1016.08 1016.01 1015.97 1015.93 1015.88 1015.82 1015.73 1015.61 1015.46 1015.27 1015.05 1014.82 1014.59 1014.37 1014.16
1011.58 1011.75 1012.01 1012.36 1012.78 1013.24 1013.71 1014.17 1014.60 1014.97 1015.28 1015.53 1015.72 1015.86 1015.97 1016.06 1016.13 1016.20 1016.26 1016.31 1016.35 1016.37 1016.37 1016.35 1016.32 1016.28 1016.23 1016.19 1016.15 1016.12 1016.10 1016.07 1016.04 1015.99 1015.91 1015.81 1015.68 1015.52 1015.34 1015.15 1014.95 1014.75 1014.55
1011.36 1011.50 1011.72 1012.02 1012.39 1012.81 1013.25 1013.68 1014.09 1014.44 1014.75 1015.00 1015.19 1015.34 1015.46 1015.56 1015.65 1015.73 1015.81 1015.88 1015.95 1016.02 1016.07 1016.11 1016.14 1016.16 1016.17 1016.17 1016.18 1016.17 1016.17 1016.15 1016.12 1016.07 1016.00 1015.91 1015.80 1015.68 1015.54 1015.39 1015.23 1015.06 1014.88
1011.05 1011.15 1011.34 1011.60 1011.94 1012.32 1012.72 1013.12 1013.51 1013.85 1014.15 1014.40 1014.60 1014.76 1014.89 1015.01 1015.11 1015.21 1015.31 1015.41 1015.52 1015.62 1015.72 1015.81 1015.90 1015.97 1016.03 1016.07 1016.10 1016.12 1016.12 1016.09 1016.06 1016.00 1015.93 1015.86 1015.77 1015.68 1015.58 1015.47 1015.36 1015.23 1015.08
Thickness
5595 5594 5592 5592 5592 5592 5593 5595 5596 5597 5598 5600 5602 5606 5609 5611 5613 5615 5617 5620 5623 5625 5628 5631 5633 5636 5639 5642 5645 5646 5647 5648 5649 5648 5649 5652 5655 5657 5658 5659 5659 5660 5659
5591 5589 5588 5587 5587 5587 5587 5588 5588 5589 5590 5590 5592 5594 5597 5601 5604 5605 5607 5610 5613 5615 5619 5621 5623 5626 5628 5631 5634 5636 5637 5639 5640 5641 5640 5642 5645 5649 5650 5652 5653 5653 5653
5588 5586 5584 5582 5581 5581 5580 5580 5580 5580 5581 5582 5584 5587 5590 5592 5595 5597 5599 5601 5603 5606 5608 5612 5614 5616 5618 5621 5624 5626 5628 5629 5631 5632 5633 5635 5639 5642 5643 5645 5646 5646 5647
5583 5581 5579 5577 5576 5574 5573 5573 5573 5573 5574 5575 5576 5579 5581 5584 5586 5588 5589 5591 5593 5596 5598 5601 5603 5605 5608 5611 5614 5616 5618 5620 5622 5623 5624 5628 5631 5631 5634 5636 5638 5638 5638
5578 5576 5573 5571 5569 5567 5566 5566 5566 5566 5567 5567 5568 5570 5573 5575 5577 5578 5580 5582 5584 5585 5588 5590 5593 5595 5598 5601 5604 5606 5608 5611 5613 5615 5616 5617 5619 5622 5624 5627 5629 5629 5630
5573 5571 5568 5565 5564 5562 5560 5559 5559 5559 5559 5559 5561 5562 5564 5566 5569 5570 5571 5573 5574 5576 5578 5579 5582 5585 5588 5591 5594 5596 5599 5601 5603 5605 5608 5609 5611 5614 5615 5618 5620 5620 5622
5568 5566 5563 5561 5559 5556 5554 5553 5552 5552 5552 5552 5554 5554 5556 5558 5560 5561 5562 5563 5565 5567 5568 5570 5572 5575 5577 5580 5583 5586 5588 5591 5593 5595 5597 5600 5602 5604 5605 5607 5609 5609 5611
5564 5561 5558 5555 5553 5551 5548 5547 5546 5545 5545 5545 5546 5547 5548 5550 5551 5552 5553 5554 5555 5556 5557 5560 5563 5566 5568 5570 5572 5575 5577 5580 5582 5585 5587 5589 5592 5594 5596 5597 5597 5599 5601
5559 5556 5553 5550 5547 5545 5542 5540 5539 5538 5538 5537 5538 5539 5540 5541 5542 5543 5544 5544 5545 5545 5547 5550 5553 5556 5558 5560 5563 5565 5567 5569 5571 5573 5576 5578 5581 5583 5585 5586 5588 5588 5592
5554 5551 5548 5544 5541 5538 5536 5534 5532 5531 5530 5530 5531 5531 5532 5533 5534 5535 5536 5536 5536 5536 5538 5541 5543 5545 5548 5551 5553 5555 5557 5559 5560 5562 5565 5567 5570 5572 5574 5575 5577 5578 5580
5549 5546 5543 5538 5534 5532 5529 5528 5526 5525 5524 5524 5524 5524 5525 5525 5526 5527 5528 5528 5528 5529 5530 5532 5533 5536 5539 5541 5543 5546 5547 5548 5550 5551 5553 5556 5558 5561 5563 5564 5566 5567 5568
5544 5540 5537 5532 5529 5526 5524 5522 5520 5519 5518 5517 5517 5518 5518 5519 5520 5520 5520 5520 5521 5521 5522 5523 5525 5527 5529 5531 5533 5535 5536 5537 5539 5541 5543 5545 5547 5549 5551 5553 5555 5556 5557
5539 5535 5532 5528 5525 5522 5519 5517 5515 5513 5511 5511 5511 5512 5512 5513 5513 5513 5512 5512 5512 5513 5515 5516 5517 5518 5519 5521 5523 5525 5526 5527 5529 5530 5532 5534 5536 5538 5540 5541 5543 5544 5545
5534 5531 5528 5524 5521 5517 5514 5512 5509 5507 5505 5505 5505 5505 5505 5504 5505 5505 5504 5504 5505 5506 5507 5508 5509 5510 5511 5512 5513 5514 5515 5517 5518 5520 5522 5523 5525 5527 5528 5530 5531 5531 5533
5529 5526 5523 5520 5516 5512 5508 5505 5503 5501 5499 5498 5498 5497 5496 5496 5496 5496 5496 5496 5497 5498 5499 5500 5501 5501 5502 5503 5504 5504 5505 5507 5509 5510 5511 5512 5513 5514 5515 5517 5518 5519 5520
5525 5522 5518 5515 5511 5507 5503 5499 5497 5494 5492 5491 5491 5490 5488 5488 5488 5488 5487 5488 5489 5490 5491 5492 5493 5493 5494 5494 5494 5494 5495 5497 5498 5499 5500 5501 5501 5501 5502 5503 5503 5504 5506
5520 5517 5514 5510 5506 5502 5497 5493 5490 5487 5485 5484 5484 5482 5481 5480 5480 5479 5479 5480 5480 5481 5482 5482 5483 5484 5485 5484 5484 5483 5485 5486 5487 5488 5489 5490 5490 5489 5490 5490 5490 5491 5491
5514 5511 5508 5504 5500 5495 5490 5486 5483 5480 5478 5477 5476 5475 5473 5473 5472 5472 5472 5471 5471 5472 5472 5473 5473 5474 5475 5475 5475 5474 5475 5475 5476 5476 5478 5478 5478 5478 5478 5478 5479 5479 5478
5507 5504 5501 5497 5493 5488 5482 5478 5476 5473 5472 5471 5470 5468 5466 5465 5464 5464 5464 5464 5463 5463 5463 5463 5464 5465 5465 5464 5464 5464 5464 5464 5464 5464 5464 5465 5466 5466 5465 5465 5466 5466 5464
5498 5495 5493 5489 5485 5480 5475 5471 5470 5468 5467 5465 5463 5461 5459 5458 5457 5456 5456 5455 5454 5454 5454 5454 5454 5455 5455 5454 5453 5453 5454 5454 5453 5453 5453 5452 5453 5453 5453 5452 5453 5453 5452
5491 5487 5484 5481 5479 5474 5469 5466 5465 5463 5461 5459 5457 5455 5453 5451 5450 5449 5448 5447 5446 5446 5446 5446 5446 5446 5445 5445 5444 5443 5444 5444 5444 5443 5443 5442 5441 5441 5440 5440 5440 5439 5438
5483 5480 5478 5475 5471 5467 5463 5462 5460 5458 5454 5452 5450 5449 5447 5445 5443 5441 5440 5439 5439 5439 5438 5438 5438 5437 5437 5436 5435 5435 5434 5434 5434 5434 5434 5433 5431 5430 5429 5428 5427 5425 5424
5477 5474 5471 5469 5465 5461 5458 5457 5456 5451 5448 5446 5445 5443 5440 5438 5436 5434 5433 5432 5431 5431 5431 5431 5431 5430 5428 5428 5426 5426 5426 5425 5424 5424 5423 5422 5420 5419 5418 5416 5414 5413 5412
5470 5468 5465 5463 5461 5457 5453 5452 5449 5445 5442 5441 5439 5437 5434 5432 5429 5427 5426 5425 5425 5424 5424 5423 5423 5422 5421 5420 5418 5417 5417 5416 5415 5414 5413 5411 5409 5407 5406 5404 5403 5401 5400
5464 5461 5460 5459 5457 5454 5449 5446 5443 5439 5437 5435 5433 5430 5428 5425 5423 5421 5420 5420 5419 5417 5417 5416 5415 5414 5413 5411 5409 5408 5408 5407 5405 5404 5403 5401 5400 5399 5397 5394 5391 5390 5389
5458 5455 5454 5453 5451 5448 5444 5441 5437 5434 5432 5430 5427 5425 5422 5420 5417 5416 5415 5412 5411 5409 5407 5406 5405 5405 5403 5402 5400 5399 5398 5396 5395 5394 5393 5391 5389 5387 5385 5383 5381 5378 5376